DECAYED

STARLINK-1759, 46340 (Decayed)

Orbit data source: Space-Track

STARLINK-1759, 46340 was a payload satellite owned by SpaceX/Seattle (US) in LEO that was launched on Thu, 03 Sep 2020 UTC via an FALCON 9 launch vehicle from the Air Force Eastern Test Range (AFETR). Payload-class satellites include a variety of spacecraft equipped with specific instruments for various scientific and technological missions. These include communications satellites like Starlink; space stations such as the ISS; scientific satellites like the Hubble; Earth observation satellites from companies like Planet Labs, Umbra, and HawkEye 360; GPS; miniature CubeSats for education and research; and military/defense satellites.

Not visible in the next 10 days
Identifier
46340, 2020-062R
Orbit
Decayed
Country
Flag of USUS
Related business
Manufacturer
SpaceX/Seattle
Mission
Decayed Commercial Communications
Bus & Motor
STARLINK, Unknown motor
Mass
260 kg wet, ~248 kg dry
Launch date (UTC)
2020-09-03 (6 years ago)
Launch vehicle
FALCON 9
Launch site
Air Force Eastern Test Range (AFETR)
Object type
Payload
Rocket body
Debris
Shape & HBR
Box + 1 Pan, 10.1 m
Radar Cross Section
13.562 m², Large (>1 m²)

Expand to show TLE details & history
Last TLE update: 2 months ago

TLE from 2 months ago
0 STARLINK-1759
1 46340U 20062R   26200.75716244  .09062225  12442-4  58500-3 0  9997
2 46340  52.9962  28.0761 0011414 287.6003  72.3796 16.40705649325818
Epoch: 2026-07-19T18:10Z
TLE epoch observation values (Epoch: 2026-07-19T18:10:18.834Z)
Latitude
-0.00005°
Longitude
177.94661°
Altitude
162.597 km
Speed
7.811 km/s
True Right ascension
01h 52m 18s
True Declination
0° 00' 00"
Sunlit
Object was in daylight at epoch
Visualization orbit readout
Latitude
Unknown
Longitude
Unknown
Altitude
Unknown
Speed
Unknown
Apparent Right ascension
Unknown
Apparent Declination
Unknown
Sunlit
N/A
Visualization observer readout
Local Sidereal Time
09:55:07
Azimuth
Unknown
Elevation
Unknown
Doppler factor
Unknown
Orbital elements
Apogee altitude
171.689 km
Perigee altitude
156.755 km
Semi-major axis
6,542.359 km
Eccentricity
0.00114
Inclination
52.9962°
RAAN
28.0761°
Arg. of periapsis
287.6003°
True anomaly
72.50431°
Mean anomaly
72.3796°
Eccentric anomaly
72.44195°
Mean motion
4.10149 °/min
Orbital period
87.77 mins
BSTAR
0.000585
Loading maneuver chart data...
Computing Atmospheric mass density...

Documentation

Showing up to 5 results
|